Regional Weather Roundup
Issued by NWS Green Bay, WI

Home | Current Version | Previous Version | Text Only | Print | Product List | Glossary On
Versions: 1 2 3 4 5 6 7 8 9 10 11 12 13 14 15 16 17 18 19 20 21 22 23 24 25 26 27 28 29 30 31 32 33 34 35 36 37 38 39 40 41 42 43 44 45 46 47 48 49 50
000
ASUS43 KGRB 070900
RWRGRB

NORTH-CENTRAL AND NORTHEAST WISCONSIN REGIONAL WEATHER ROUNDUP
NATIONAL WEATHER SERVICE GREEN BAY WI
400 AM CDT TUE JUL 07 2015

WIZ005-009-010>012-018-019-071000-
NORTH CENTRAL WISCONSIN

CITY           SKY/WX    TMP DP  RH WIND       PRES   REMARKS
IRONWOOD       CLOUDY    52  48  87 N5        30.01S
MANITOWISH WTR NOT AVBL
ARBOR VITAE    NOT AVBL
EAGLE RIVER    NOT AVBL
LAND O LAKES   NOT AVBL
RHINELANDER    CLEAR     50  44  80 N6        30.00S
PHILLIPS       NOT AVBL
ANTIGO         NOT AVBL
TOMAHAWK       NOT AVBL
MERRILL        NOT AVBL
$$

WIZ013-073-071000-
NORTHEAST WISCONSIN

CITY           SKY/WX    TMP DP  RH WIND       PRES   REMARKS
IRON MOUNTAIN  MOCLDY    53  47  79 N10       29.94S
MARINETTE      CLOUDY    55  48  76 N7        29.93R
$$

WIZ017-030-035>037-045-071000-
CENTRAL WISCONSIN

CITY           SKY/WX    TMP DP  RH WIND       PRES   REMARKS
MEDFORD        NOT AVBL
WAUSAU         PTCLDY    55  51  86 NW9       29.97R
MOSINEE        NOT AVBL
MARSHFIELD     CLEAR     55  49  80 N13       29.99S
WISC RAPIDS    CLEAR     56  52  86 N8        29.99R FOG
STEVENS POINT  NOT AVBL
WAUPACA        NOT AVBL
SHAWANO        NOT AVBL
CLINTONVILLE   NOT AVBL
$$

WIZ038-039-048-051-071000-
FOX VALLEY

CITY           SKY/WX    TMP DP  RH WIND       PRES   REMARKS
NWS GREEN BAY  CLOUDY    62  56  80 N9        29.93R HAZE
APPLETON       NOT AVBL
OSHKOSH        CLOUDY    62  56  80 N9        29.92F HAZE
FOND DU LAC    CLOUDY    61  58  90 N10       29.92S FOG
$$

WIZ022-050-052-071000-
EAST CENTRAL WISCONSIN

CITY           SKY/WX    TMP DP  RH WIND       PRES   REMARKS
STURGEON BAY   CLOUDY    57  46  67 N16G26    29.94R
MANITOWOC      NOT AVBL
SHEBOYGAN      LGT RAIN  59  57  93 N13       29.91R FOG
$$

LMZ563-521-522-541>543-071000-
LAKESHORE

STATION/POSITION TIME  TEMP    WIND        PRES    VSBY  WAVE
                       AIR SEA DIR/SP/G                  HT/PER
                 (UTC) (F)     (DEG/KT/KT) (MB)    (MI)  (FT/S)
SHEBOYGAN LKSHOR 0800   56     360/  9/  9 1012.8R
KEWAUNEE LKSHORE 0800   59     360/  5/  9 1012.1R
NORTHPORT PIER   0800   59     340/ 22/ 25 1012.5R
N MID LAKE BUOY  0750   54 54  320/ 17/ 19 1011.4R         3/ 4
SISTER BAY LKSHO 0814   58     360/ 19/ 25   N/A
CHAMBERS ISLAND  0800   60     340/ 19/ 24 1012.9R
MENOMINEE LKSHOR 0800   58     340/ 14/ 16 1013.8R
$$



USA.gov is the U.S. government's official web portal to all federal, state and local government web resources and services.